Overview Statistics Trail Chart Weather Telemetry Raw packets
 

This is the latest recevied weather packets stored in our database for station/object K5BOU. If no packets are shown the sender has not sent any weather packets the latest 10 day(s).

<< 64 65 66 67 68 69 70 >>
Time Temp. Humidity Pressure Rain* Wind** Luminosity Snow
1788213120 33.89° C 63% 1011.9 hPa 0 mm - 177 W/m² -
1788212817 33.89° C 64% 1012.2 hPa 0 mm - 154 W/m² -
1788212514 33.89° C 63% 1012.2 hPa 0 mm - 138 W/m² -
1788212209 33.89° C 63% 1012.3 hPa 0 mm - 134 W/m² -
1788211905 33.89° C 64% 1012.4 hPa 0 mm - 163 W/m² -
1788211601 33.89° C 64% 1012.3 hPa 0 mm - 134 W/m² -
1788211298 33.89° C 65% 1012.4 hPa 0 mm - 138 W/m² -
1788210996 34.44° C 65% 1012.5 hPa 0 mm - 151 W/m² -
1788210696 34.44° C 64% 1012.4 hPa 0 mm - 185 W/m² -
1788210391 34.44° C 65% 1012.5 hPa 0 mm - 458 W/m² -
1788210087 34.44° C 65% 1012.6 hPa 0 mm - 178 W/m² -
1788209786 35° C 65% 1012.7 hPa 0 mm - 347 W/m² -
1788209482 35.56° C 65% 1012.8 hPa 0 mm - 308 W/m² -
1788209182 35.56° C 64% 1012.7 hPa 0 mm - 448 W/m² -
1788208880 35° C 67% 1012.5 hPa 0 mm - 652 W/m² -
1788208575 33.89° C 68% 1012.8 hPa 0 mm - 242 W/m² -
1788208275 34.44° C 67% 1012.8 hPa 0 mm - 255 W/m² -
1788207973 34.44° C 66% 1012.9 hPa 0 mm - 222 W/m² -
1788207668 34.44° C 64% 1012.9 hPa 0 mm - 171 W/m² -
1788207367 34.44° C 64% 1012.8 hPa 0 mm - 167 W/m² -
1788207062 35° C 61% 1012.8 hPa 0 mm - 185 W/m² -
1788206757 35° C 61% 1013 hPa 0 mm - 186 W/m² -
1788206452 35.56° C 61% 1013.1 hPa 0 mm - 200 W/m² -
1788206148 35.56° C 59% 1012.9 hPa 0 mm - 644 W/m² -
1788205843 35.56° C 59% 1013.1 hPa 0 mm - 771 W/m² -

* Rain latest hour (hover to see other rain measurements)
** Current wind speed in m/s (hover to see current wind gust speed)